| time (UTC) | temp F | wind direction | speed MPH | gust MPH | rain 1hr in | rain 24hr in | rain mn in | humidity % | barometer mb |
| 20260906105040 | 75 | 257 | 0.0 | 0.0 | 0.00 | 0.00 | 0.00 | 95 | 1013.1 |
| 20260906104540 | 75 | 258 | 0.0 | 0.0 | 0.00 | 0.00 | 0.00 | 95 | 1013.0 |
| 20260906104027 | 75 | 299 | 0.0 | 0.0 | 0.00 | 0.00 | 0.00 | 95 | 1012.9 |
| 20260906103526 | 75 | 198 | 0.0 | 0.0 | 0.00 | 0.00 | 0.00 | 95 | 1012.9 |
| 20260906103026 | 75 | 251 | 0.0 | 0.0 | 0.00 | 0.00 | 0.00 | 95 | 1012.9 |
| 20260906102514 | 75 | 252 | 0.0 | 0.0 | 0.00 | 0.00 | 0.00 | 95 | 1012.8 |
| 20260906102233 | 75 | 252 | 0.0 | 0.0 | 0.00 | 0.00 | 0.00 | 95 | 1012.7 |
| 20260906101515 | 75 | 218 | 0.0 | 2.0 | 0.00 | 0.00 | 0.00 | 95 | 1012.7 |
| 20260906101015 | 75 | 222 | 0.0 | 4.0 | 0.00 | 0.00 | 0.00 | 95 | 1012.8 |
| 20260906100514 | 75 | 265 | 2.0 | 4.0 | 0.00 | 0.00 | 0.00 | 95 | 1012.9 |
| 20260906100502 | 76 | 257 | 0.0 | 0.0 | 0.00 | 0.00 | 0.00 | 95 | 1013.0 |
| 20260906095516 | 75 | 252 | 0.0 | 0.0 | 0.00 | 0.00 | 0.00 | 95 | 1012.8 |
| 20260906095016 | 75 | 252 | 0.0 | 0.0 | 0.00 | 0.00 | 0.00 | 95 | 1012.9 |
| 20260906094736 | 75 | 252 | 0.0 | 0.0 | 0.00 | 0.00 | 0.00 | 95 | 1012.7 |
| 20260906094014 | 75 | 252 | 0.0 | 0.0 | 0.00 | 0.00 | 0.00 | 95 | 1012.5 |
| 20260906093516 | 76 | 252 | 0.0 | 0.0 | 0.00 | 0.00 | 0.00 | 95 | 1012.6 |
| 20260906093015 | 76 | 225 | 0.0 | 0.0 | 0.00 | 0.00 | 0.00 | 95 | 1012.8 |
| 20260906092515 | 76 | 223 | 0.0 | 2.0 | 0.00 | 0.00 | 0.00 | 95 | 1012.9 |
| 20260906092016 | 76 | 183 | 0.0 | 2.0 | 0.00 | 0.00 | 0.00 | 95 | 1013.0 |
| 20260906091515 | 76 | 201 | 0.0 | 0.0 | 0.00 | 0.00 | 0.00 | 95 | 1013.0 |
| 20260906091239 | 76 | 199 | 0.0 | 0.0 | 0.00 | 0.00 | 0.00 | 95 | 1013.0 |
| 20260906090514 | 76 | 256 | 0.0 | 2.0 | 0.00 | 0.00 | 0.00 | 95 | 1013.1 |
| 20260906090014 | 76 | 227 | 0.0 | 2.0 | 0.00 | 0.00 | 0.00 | 95 | 1013.2 |
| 20260906085514 | 76 | 226 | 0.0 | 2.0 | 0.00 | 0.00 | 0.00 | 95 | 1012.9 |
| 20260906085014 | 76 | 226 | 0.0 | 2.0 | 0.00 | 0.00 | 0.00 | 95 | 1012.7 |
| 20260906084514 | 76 | 226 | 0.0 | 2.0 | 0.00 | 0.00 | 0.00 | 95 | 1012.6 |
| 20260906084233 | 76 | 226 | 0.0 | 2.0 | 0.00 | 0.00 | 0.00 | 95 | 1012.6 |
| 20260906083514 | 76 | 204 | 0.0 | 4.0 | 0.00 | 0.00 | 0.00 | 95 | 1012.6 |
| 20260906083015 | 76 | 179 | 2.0 | 4.0 | 0.00 | 0.00 | 0.00 | 95 | 1012.6 |
| 20260906082514 | 76 | 208 | 0.0 | 2.0 | 0.00 | 0.00 | 0.00 | 95 | 1012.8 |
| 20260906082014 | 76 | 211 | 0.0 | 2.0 | 0.00 | 0.00 | 0.00 | 95 | 1012.6 |
| 20260906082000 | 76 | 266 | 1.0 | 2.0 | 0.00 | 0.00 | 0.00 | 95 | 1012.7 |
| 20260906081234 | 76 | 208 | 0.0 | 0.0 | 0.00 | 0.00 | 0.00 | 95 | 1012.4 |
| 20260906080516 | 76 | 208 | 0.0 | 0.0 | 0.00 | 0.00 | 0.00 | 95 | 1012.4 |
| 20260906080016 | 77 | 208 | 0.0 | 0.0 | 0.00 | 0.00 | 0.00 | 95 | 1012.5 |
| 20260906075514 | 77 | 208 | 0.0 | 0.0 | 0.00 | 0.00 | 0.00 | 95 | 1012.5 |
| 20260906075014 | 77 | 208 | 0.0 | 0.0 | 0.00 | 0.00 | 0.00 | 95 | 1012.2 |
| 20260906074515 | 77 | 207 | 0.0 | 0.0 | 0.00 | 0.00 | 0.00 | 95 | 1012.3 |
| 20260906074016 | 77 | 207 | 0.0 | 0.0 | 0.00 | 0.00 | 0.00 | 95 | 1012.2 |
| 20260906073736 | 77 | 208 | 0.0 | 0.0 | 0.00 | 0.00 | 0.00 | 95 | 1012.4 |
| 20260906073018 | 77 | 208 | 0.0 | 0.0 | 0.00 | 0.00 | 0.00 | 95 | 1012.2 |
| 20260906072514 | 77 | 208 | 0.0 | 0.0 | 0.00 | 0.00 | 0.00 | 95 | 1012.3 |
| 20260906072014 | 77 | 209 | 0.0 | 0.0 | 0.00 | 0.00 | 0.00 | 95 | 1012.5 |
| 20260906071516 | 77 | 208 | 0.0 | 0.0 | 0.00 | 0.00 | 0.00 | 95 | 1012.4 |
| 20260906071014 | 77 | 208 | 0.0 | 0.0 | 0.00 | 0.00 | 0.00 | 95 | 1012.5 |
| 20260906070514 | 77 | 208 | 0.0 | 0.0 | 0.00 | 0.00 | 0.00 | 95 | 1012.5 |
| 20260906070014 | 76 | 208 | 0.0 | 0.0 | 0.00 | 0.00 | 0.00 | 95 | 1012.2 |
| 20260906065517 | 77 | 207 | 0.0 | 0.0 | 0.00 | 0.00 | 0.00 | 95 | 1012.4 |
| 20260906065015 | 77 | 207 | 0.0 | 0.0 | 0.00 | 0.00 | 0.00 | 95 | 1012.1 |
| 20260906064738 | 77 | 209 | 0.0 | 0.0 | 0.00 | 0.00 | 0.00 | 95 | 1012.1 |
| 20260906064015 | 77 | 208 | 0.0 | 2.0 | 0.00 | 0.00 | 0.00 | 95 | 1012.3 |
| 20260906063516 | 77 | 208 | 0.0 | 2.0 | 0.00 | 0.00 | 0.00 | 95 | 1012.3 |
| 20260906063016 | 77 | 208 | 2.0 | 4.0 | 0.00 | 0.00 | 0.00 | 95 | 1012.3 |
| 20260906062515 | 77 | 206 | 2.0 | 4.0 | 0.00 | 0.00 | 0.00 | 95 | 1012.5 |
| 20260906062017 | 77 | 225 | 0.0 | 0.0 | 0.00 | 0.00 | 0.00 | 95 | 1012.6 |
| 20260906061733 | 77 | 206 | 0.0 | 0.0 | 0.00 | 0.00 | 0.00 | 95 | 1012.8 |
| 20260906061242 | 77 | 202 | 0.0 | 0.0 | 0.00 | 0.00 | 0.00 | 95 | 1012.8 |
| 20260906060515 | 77 | 251 | 0.0 | 0.0 | 0.00 | 0.00 | 0.00 | 95 | 1012.9 |
| 20260906060238 | 77 | 251 | 0.0 | 2.0 | 0.00 | 0.00 | 0.00 | 95 | 1012.9 |
| 20260906055738 | 77 | 251 | 0.0 | 4.0 | 0.00 | 0.00 | 0.00 | 94 | 1012.7 |
| 20260906055015 | 78 | 251 | 0.0 | 4.0 | 0.00 | 0.00 | 0.00 | 94 | 1012.7 |
| 20260906054514 | 78 | 226 | 0.0 | 2.0 | 0.00 | 0.00 | 0.00 | 94 | 1012.8 |
| 20260906054014 | 78 | 226 | 0.0 | 4.0 | 0.00 | 0.00 | 0.00 | 94 | 1012.9 |
| 20260906053516 | 78 | 226 | 0.0 | 4.0 | 0.00 | 0.00 | 0.00 | 94 | 1012.8 |
| 20260906053240 | 77 | 174 | 0.0 | 0.0 | 0.00 | 0.00 | 0.00 | 95 | 1012.9 |
| 20260906052514 | 77 | 174 | 0.0 | 2.0 | 0.00 | 0.00 | 0.00 | 95 | 1012.9 |
| 20260906052015 | 77 | 173 | 0.0 | 2.0 | 0.00 | 0.00 | 0.00 | 95 | 1012.9 |
| 20260906051516 | 77 | 186 | 0.0 | 2.0 | 0.00 | 0.00 | 0.00 | 95 | 1012.9 |
| 20260906051015 | 77 | 186 | 0.0 | 0.0 | 0.00 | 0.00 | 0.00 | 94 | 1012.8 |
| 20260906050515 | 78 | 187 | 0.0 | 0.0 | 0.00 | 0.00 | 0.00 | 94 | 1013.0 |
| 20260906050015 | 78 | 186 | 0.0 | 0.0 | 0.00 | 0.00 | 0.00 | 94 | 1013.1 |
| 20260906045516 | 78 | 186 | 0.0 | 0.0 | 0.00 | 0.00 | 0.00 | 94 | 1012.8 |
| 20260906045002 | 78 | 186 | 0.0 | 0.0 | 0.00 | 0.00 | 0.00 | 94 | 1012.9 |
| 20260906044450 | 78 | 187 | 0.0 | 0.0 | 0.00 | 0.00 | 0.00 | 94 | 1013.0 |
| 20260906043951 | 78 | 186 | 0.0 | 0.0 | 0.00 | 0.00 | 0.00 | 94 | 1012.9 |
| 20260906043452 | 78 | 187 | 0.0 | 2.0 | 0.00 | 0.00 | 0.00 | 93 | 1013.0 |
| 20260906042941 | 78 | 187 | 0.0 | 2.0 | 0.00 | 0.00 | 0.00 | 93 | 1013.0 |
| 20260906042439 | 78 | 187 | 0.0 | 2.0 | 0.00 | 0.00 | 0.00 | 93 | 1013.1 |
| 20260906042157 | 78 | 186 | 0.0 | 2.0 | 0.00 | 0.00 | 0.00 | 93 | 1013.1 |
| 20260906041427 | 79 | 186 | 0.0 | 0.0 | 0.00 | 0.00 | 0.00 | 92 | 1013.1 |
| 20260906040917 | 79 | 186 | 0.0 | 2.0 | 0.00 | 0.00 | 0.00 | 92 | 1013.1 |
| 20260906040850 | 79 | 186 | 0.0 | 2.0 | 0.00 | 0.00 | 0.00 | 92 | 1013.2 |
| 20260906035850 | 79 | 186 | 0.0 | 0.0 | 0.00 | 0.00 | 0.00 | 92 | 1013.2 |
| 20260906035339 | 79 | 186 | 0.0 | 2.0 | 0.00 | 0.00 | 0.00 | 91 | 1013.0 |
| 20260906034839 | 79 | 185 | 0.0 | 2.0 | 0.00 | 0.00 | 0.00 | 91 | 1013.0 |
| 20260906034341 | 80 | 196 | 1.0 | 2.0 | 0.00 | 0.00 | 0.00 | 90 | 1013.2 |
| 20260906033827 | 80 | 211 | 0.0 | 4.0 | 0.00 | 0.00 | 0.00 | 89 | 1013.2 |
| 20260906033555 | 80 | 279 | 3.0 | 4.0 | 0.00 | 0.00 | 0.00 | 89 | 1013.3 |
| 20260906033048 | 80 | 258 | 1.0 | 4.0 | 0.00 | 0.00 | 0.00 | 90 | 1013.1 |
| 20260906032316 | 80 | 182 | 0.0 | 2.0 | 0.00 | 0.00 | 0.00 | 90 | 1013.3 |
| 20260906031816 | 80 | 182 | 2.0 | 2.0 | 0.00 | 0.00 | 0.00 | 89 | 1013.2 |
| 20260906031314 | 80 | 182 | 0.0 | 2.0 | 0.00 | 0.00 | 0.00 | 89 | 1013.2 |
| 20260906030802 | 80 | 182 | 2.0 | 2.0 | 0.00 | 0.00 | 0.00 | 88 | 1013.0 |
| 20260906030302 | 80 | 194 | 0.0 | 2.0 | 0.00 | 0.00 | 0.00 | 88 | 1013.1 |
| 20260906025802 | 81 | 193 | 2.0 | 4.0 | 0.00 | 0.00 | 0.00 | 88 | 1012.8 |
| 20260906025252 | 81 | 287 | 0.0 | 4.0 | 0.00 | 0.00 | 0.00 | 87 | 1012.8 |
| 20260906024752 | 81 | 256 | 2.0 | 4.0 | 0.00 | 0.00 | 0.00 | 87 | 1012.9 |
| 20260906024251 | 81 | 247 | 0.0 | 7.0 | 0.00 | 0.00 | 0.00 | 86 | 1012.9 |
| 20260906023739 | 82 | 225 | 2.0 | 7.0 | 0.00 | 0.00 | 0.00 | 86 | 1013.0 |
| 20260906023238 | 82 | 246 | 1.0 | 4.0 | 0.00 | 0.00 | 0.00 | 86 | 1013.0 |
| 20260906022739 | 82 | 191 | 0.0 | 9.0 | 0.00 | 0.00 | 0.00 | 85 | 1013.2 |
| 20260906022729 | 82 | 249 | 5.0 | 9.0 | 0.00 | 0.00 | 0.00 | 86 | 1013.0 |
| 20260906021727 | 82 | 40 | 2.0 | 7.0 | 0.00 | 0.00 | 0.00 | 85 | 1013.2 |
| 20260906021226 | 82 | 103 | 3.0 | 7.0 | 0.00 | 0.00 | 0.00 | 84 | 1013.0 |
| 20260906020717 | 83 | 187 | 2.0 | 9.0 | 0.00 | 0.00 | 0.00 | 83 | 1013.1 |
| 20260906020215 | 84 | 146 | 7.0 | 9.0 | 0.00 | 0.00 | 0.00 | 82 | 1013.2 |
| 20260906015716 | 85 | 169 | 2.0 | 9.0 | 0.00 | 0.00 | 0.00 | 78 | 1013.0 |
| 20260906015204 | 86 | 107 | 4.0 | 14.0 | 0.00 | 0.00 | 0.00 | 74 | 1013.0 |
| 20260906014703 | 87 | 160 | 3.0 | 14.0 | 0.00 | 0.00 | 0.00 | 74 | 1012.6 |
| 20260906014202 | 87 | 223 | 5.0 | 12.0 | 0.00 | 0.00 | 0.00 | 73 | 1012.8 |
| 20260906013652 | 86 | 271 | 3.0 | 12.0 | 0.00 | 0.00 | 0.00 | 73 | 1012.6 |
| 20260906013408 | 86 | 268 | 3.0 | 4.0 | 0.00 | 0.00 | 0.00 | 76 | 1012.4 |
| 20260906012652 | 87 | 218 | 2.0 | 4.0 | 0.00 | 0.00 | 0.00 | 72 | 1012.3 |
| 20260906012141 | 87 | 205 | 2.0 | 7.0 | 0.00 | 0.00 | 0.00 | 72 | 1012.2 |
| 20260906011638 | 87 | 215 | 0.0 | 9.0 | 0.00 | 0.00 | 0.00 | 73 | 1012.1 |
| 20260906011141 | 86 | 203 | 2.0 | 9.0 | 0.00 | 0.00 | 0.00 | 74 | 1012.2 |
| 20260906010628 | 84 | 180 | 0.0 | 7.0 | 0.00 | 0.00 | 0.00 | 82 | 1011.9 |
| 20260906010128 | 85 | 191 | 3.0 | 7.0 | 0.00 | 0.00 | 0.00 | 83 | 1011.9 |
| 20260906005628 | 85 | 218 | 0.0 | 4.0 | 0.00 | 0.00 | 0.00 | 82 | 1011.7 |
| 20260906005116 | 85 | 213 | 0.0 | 4.0 | 0.00 | 0.00 | 0.00 | 82 | 1011.8 |
| 20260906004828 | 85 | 86 | 1.0 | 4.0 | 0.00 | 0.00 | 0.00 | 81 | 1011.4 |
| 20260906004053 | 85 | 88 | 0.0 | 7.0 | 0.00 | 0.00 | 0.00 | 79 | 1011.5 |
| 20260906003552 | 84 | 9 | 5.0 | 7.0 | 0.00 | 0.00 | 0.00 | 79 | 1011.0 |
| 20260906003308 | 84 | 335 | 1.0 | 2.0 | 0.00 | 0.00 | 0.00 | 81 | 1010.9 |
| 20260906002540 | 85 | 334 | 0.0 | 0.0 | 0.00 | 0.00 | 0.00 | 81 | 1011.0 |
| 20260906002305 | 85 | 335 | 0.0 | 0.0 | 0.00 | 0.00 | 0.00 | 79 | 1010.9 |
| 20260906001806 | 86 | 336 | 0.0 | 0.0 | 0.00 | 0.00 | 0.00 | 78 | 1010.9 |
| 20260906001026 | 86 | 335 | 0.0 | 2.0 | 0.00 | 0.00 | 0.00 | 78 | 1010.9 |
| 20260906000751 | 87 | 335 | 0.0 | 2.0 | 0.00 | 0.00 | 0.00 | 79 | 1011.0 |
| 20260906000026 | 87 | 334 | 2.0 | 2.0 | 0.00 | 0.00 | 0.00 | 75 | 1010.9 |
| 20260905235515 | 88 | 335 | 0.0 | 2.0 | 0.00 | 0.00 | 0.00 | 73 | 1011.1 |
| 20260905235015 | 89 | 335 | 0.0 | 0.0 | 0.00 | 0.00 | 0.00 | 66 | 1011.0 |
| 20260905234515 | 90 | 335 | 0.0 | 0.0 | 0.00 | 0.00 | 0.00 | 63 | 1011.3 |
| 20260905234005 | 91 | 335 | 0.0 | 0.0 | 0.00 | 0.00 | 0.00 | 62 | 1011.3 |
| 20260905233502 | 92 | 335 | 0.0 | 2.0 | 0.00 | 0.00 | 0.00 | 59 | 1011.3 |
| 20260905233004 | 92 | 335 | 0.0 | 2.0 | 0.00 | 0.00 | 0.00 | 59 | 1011.2 |
| 20260905232450 | 94 | 335 | 1.0 | 2.0 | 0.00 | 0.00 | 0.00 | 54 | 1011.2 |
| 20260905231953 | 95 | 335 | 0.0 | 0.0 | 0.00 | 0.00 | 0.00 | 55 | 1011.1 |
| 20260905231450 | 95 | 335 | 0.0 | 2.0 | 0.00 | 0.00 | 0.00 | 51 | 1010.9 |
| 20260905231204 | 96 | 335 | 0.0 | 2.0 | 0.00 | 0.00 | 0.00 | 53 | 1010.9 |
| 20260905230439 | 97 | 335 | 0.0 | 2.0 | 0.00 | 0.00 | 0.00 | 57 | 1010.8 |
| 20260905225939 | 97 | 335 | 0.0 | 2.0 | 0.00 | 0.00 | 0.00 | 57 | 1010.9 |
| 20260905225652 | 98 | 335 | 0.0 | 2.0 | 0.00 | 0.00 | 0.00 | 53 | 1010.8 |
| 20260905224928 | 98 | 335 | 0.0 | 2.0 | 0.00 | 0.00 | 0.00 | 47 | 1010.8 |
| 20260905224426 | 97 | 335 | 0.0 | 4.0 | 0.00 | 0.00 | 0.00 | 52 | 1010.9 |
| 20260905223916 | 98 | 336 | 3.0 | 4.0 | 0.00 | 0.00 | 0.00 | 51 | 1011.0 |
| 20260905223416 | 98 | 336 | 0.0 | 4.0 | 0.00 | 0.00 | 0.00 | 48 | 1010.9 |
| 20260905222914 | 98 | 63 | 2.0 | 4.0 | 0.00 | 0.00 | 0.00 | 47 | 1011.0 |
| 20260905222414 | 98 | 319 | 2.0 | 7.0 | 0.00 | 0.00 | 0.00 | 46 | 1011.1 |
| 20260905221916 | 98 | 14 | 4.0 | 7.0 | 0.00 | 0.00 | 0.00 | 48 | 1011.1 |
| 20260905221415 | 98 | 266 | 1.0 | 7.0 | 0.00 | 0.00 | 0.00 | 46 | 1011.0 |
| 20260905220915 | 98 | 151 | 1.0 | 7.0 | 0.00 | 0.00 | 0.00 | 46 | 1010.9 |
| 20260905220414 | 98 | 338 | 2.0 | 12.0 | 0.00 | 0.00 | 0.00 | 45 | 1010.8 |
| 20260905215914 | 98 | 32 | 2.0 | 12.0 | 0.00 | 0.00 | 0.00 | 48 | 1010.9 |
| 20260905215636 | 99 | 278 | 3.0 | 9.0 | 0.00 | 0.00 | 0.00 | 46 | 1011.1 |
| 20260905214918 | 99 | 136 | 4.0 | 12.0 | 0.00 | 0.00 | 0.00 | 49 | 1011.1 |
| 20260905214414 | 99 | 352 | 4.0 | 12.0 | 0.00 | 0.00 | 0.00 | 44 | 1011.2 |
| 20260905213917 | 100 | 222 | 5.0 | 9.0 | 0.00 | 0.00 | 0.00 | 44 | 1010.9 |
| 20260905213415 | 99 | 213 | 3.0 | 9.0 | 0.00 | 0.00 | 0.00 | 45 | 1011.1 |
| 20260905213137 | 99 | 302 | 2.0 | 7.0 | 0.00 | 0.00 | 0.00 | 47 | 1011.0 |
| 20260905212414 | 98 | 302 | 2.0 | 9.0 | 0.00 | 0.00 | 0.00 | 50 | 1011.2 |
| 20260905211914 | 98 | 317 | 4.0 | 9.0 | 0.00 | 0.00 | 0.00 | 48 | 1011.2 |
| 20260905211415 | 96 | 240 | 3.0 | 7.0 | 0.00 | 0.00 | 0.00 | 51 | 1011.3 |
| 20260905210914 | 95 | 29 | 0.0 | 2.0 | 0.00 | 0.00 | 0.00 | 59 | 1011.1 |
| 20260905210416 | 96 | 29 | 2.0 | 7.0 | 0.00 | 0.00 | 0.00 | 57 | 1011.2 |
| 20260905205916 | 96 | 29 | 0.0 | 7.0 | 0.00 | 0.00 | 0.00 | 56 | 1011.4 |
| 20260905205415 | 97 | 263 | 1.0 | 9.0 | 0.00 | 0.00 | 0.00 | 53 | 1011.2 |
| 20260905205134 | 97 | 266 | 3.0 | 9.0 | 0.00 | 0.00 | 0.00 | 50 | 1011.2 |
| 20260905204414 | 98 | 270 | 0.0 | 9.0 | 0.00 | 0.00 | 0.00 | 47 | 1011.4 |
| 20260905203916 | 96 | 52 | 1.0 | 9.0 | 0.00 | 0.00 | 0.00 | 55 | 1011.6 |
| 20260905203416 | 97 | 303 | 2.0 | 7.0 | 0.00 | 0.00 | 0.00 | 54 | 1011.6 |
| 20260905202916 | 97 | 297 | 1.0 | 4.0 | 0.00 | 0.00 | 0.00 | 51 | 1011.6 |
| 20260905202416 | 96 | 302 | 2.0 | 4.0 | 0.00 | 0.00 | 0.00 | 52 | 1011.6 |
| 20260905201915 | 96 | 301 | 2.0 | 7.0 | 0.00 | 0.00 | 0.00 | 49 | 1011.6 |
| 20260905201641 | 98 | 16 | 3.0 | 7.0 | 0.00 | 0.00 | 0.00 | 49 | 1011.6 |
| 20260905201135 | 98 | 181 | 0.0 | 7.0 | 0.00 | 0.00 | 0.00 | 46 | 1011.7 |
| 20260905200416 | 100 | 242 | 5.0 | 12.0 | 0.00 | 0.00 | 0.00 | 44 | 1011.6 |
| 20260905195917 | 98 | 134 | 4.0 | 12.0 | 0.00 | 0.00 | 0.00 | 47 | 1011.7 |
| 20260905195414 | 98 | 359 | 1.0 | 12.0 | 0.00 | 0.00 | 0.00 | 47 | 1011.8 |
| 20260905194914 | 99 | 85 | 9.0 | 12.0 | 0.00 | 0.00 | 0.00 | 45 | 1012.0 |
| 20260905194415 | 100 | 66 | 4.0 | 9.0 | 0.00 | 0.00 | 0.00 | 43 | 1012.1 |
| 20260905194128 | 98 | 357 | 0.0 | 16.0 | 0.00 | 0.00 | 0.00 | 48 | 1012.0 |
| 20260905194011 | 99 | 204 | 2.0 | 9.0 | 0.00 | 0.00 | 0.00 | 46 | 1012.1 |
| 20260905193137 | 98 | 76 | 4.0 | 16.0 | 0.00 | 0.00 | 0.00 | 46 | 1012.1 |
| 20260905192414 | 100 | 86 | 8.0 | 16.0 | 0.00 | 0.00 | 0.00 | 47 | 1012.3 |
| 20260905192135 | 99 | 264 | 2.0 | 12.0 | 0.00 | 0.00 | 0.00 | 46 | 1012.5 |
| 20260905191414 | 99 | 273 | 9.0 | 21.0 | 0.00 | 0.00 | 0.00 | 46 | 1012.2 |
| 20260905190916 | 98 | 104 | 0.0 | 21.0 | 0.00 | 0.00 | 0.00 | 49 | 1012.6 |
| 20260905190414 | 98 | 157 | 4.0 | 16.0 | 0.00 | 0.00 | 0.00 | 45 | 1012.5 |
| 20260905185916 | 99 | 90 | 7.0 | 14.0 | 0.00 | 0.00 | 0.00 | 47 | 1012.6 |
| 20260905185414 | 98 | 124 | 4.0 | 14.0 | 0.00 | 0.00 | 0.00 | 48 | 1012.7 |
| 20260905184916 | 98 | 70 | 7.0 | 14.0 | 0.00 | 0.00 | 0.00 | 50 | 1012.5 |
| 20260905184414 | 98 | 86 | 5.0 | 12.0 | 0.00 | 0.00 | 0.00 | 48 | 1012.8 |
| 20260905183915 | 97 | 49 | 0.0 | 12.0 | 0.00 | 0.00 | 0.00 | 47 | 1012.9 |
| 20260905183641 | 98 | 335 | 5.0 | 16.0 | 0.00 | 0.00 | 0.00 | 53 | 1013.0 |
| 20260905182915 | 98 | 320 | 12.0 | 16.0 | 0.00 | 0.00 | 0.00 | 51 | 1013.0 |
| 20260905182414 | 97 | 275 | 4.0 | 12.0 | 0.00 | 0.00 | 0.00 | 50 | 1013.2 |
| 20260905181914 | 97 | 82 | 10.0 | 14.0 | 0.00 | 0.00 | 0.00 | 50 | 1013.4 |
| 20260905181414 | 97 | 129 | 1.0 | 14.0 | 0.00 | 0.00 | 0.00 | 50 | 1013.3 |
| 20260905180914 | 97 | 95 | 7.0 | 16.0 | 0.00 | 0.00 | 0.00 | 49 | 1013.5 |
| 20260905180416 | 96 | 157 | 4.0 | 16.0 | 0.00 | 0.00 | 0.00 | 53 | 1013.4 |
| 20260905175633 | 96 | 206 | 1.0 | 14.0 | 0.00 | 0.00 | 0.00 | 52 | 1013.8 |
| 20260905175133 | 96 | 100 | 7.0 | 14.0 | 0.00 | 0.00 | 0.00 | 53 | 1013.9 |
| 20260905174416 | 97 | 3 | 5.0 | 9.0 | 0.00 | 0.00 | 0.00 | 51 | 1013.8 |
| 20260905173915 | 96 | 344 | 2.0 | 9.0 | 0.00 | 0.00 | 0.00 | 53 | 1013.6 |
| 20260905173414 | 96 | 85 | 2.0 | 9.0 | 0.00 | 0.00 | 0.00 | 53 | 1013.8 |
| 20260905172916 | 96 | 144 | 0.0 | 14.0 | 0.00 | 0.00 | 0.00 | 54 | 1014.0 |
| 20260905172414 | 95 | 317 | 1.0 | 14.0 | 0.00 | 0.00 | 0.00 | 57 | 1014.1 |
| 20260905171915 | 95 | 244 | 5.0 | 12.0 | 0.00 | 0.00 | 0.00 | 56 | 1014.2 |
| 20260905171414 | 96 | 91 | 4.0 | 9.0 | 0.00 | 0.00 | 0.00 | 54 | 1014.2 |
| 20260905170914 | 95 | 16 | 0.0 | 14.0 | 0.00 | 0.00 | 0.00 | 56 | 1014.3 |
| 20260905170415 | 94 | 214 | 0.0 | 14.0 | 0.00 | 0.00 | 0.00 | 59 | 1014.3 |
| 20260905165915 | 95 | 179 | 3.0 | 12.0 | 0.00 | 0.00 | 0.00 | 62 | 1014.3 |
| 20260905165637 | 94 | 81 | 1.0 | 12.0 | 0.00 | 0.00 | 0.00 | 65 | 1014.2 |
| 20260905164914 | 94 | 144 | 0.0 | 7.0 | 0.00 | 0.00 | 0.00 | 63 | 1014.5 |
| 20260905164414 | 94 | 191 | 3.0 | 9.0 | 0.00 | 0.00 | 0.00 | 63 | 1014.4 |
| 20260905163914 | 93 | 141 | 4.0 | 9.0 | 0.00 | 0.00 | 0.00 | 63 | 1014.6 |
| 20260905163416 | 93 | 186 | 2.0 | 9.0 | 0.00 | 0.00 | 0.00 | 64 | 1014.6 |
| 20260905162916 | 93 | 122 | 2.0 | 9.0 | 0.00 | 0.00 | 0.00 | 66 | 1014.7 |
| 20260905162414 | 93 | 121 | 4.0 | 12.0 | 0.00 | 0.00 | 0.00 | 65 | 1014.7 |
| 20260905161914 | 92 | 86 | 4.0 | 12.0 | 0.00 | 0.00 | 0.00 | 67 | 1014.7 |
| 20260905161414 | 93 | 126 | 4.0 | 9.0 | 0.00 | 0.00 | 0.00 | 65 | 1014.8 |
| 20260905160914 | 93 | 166 | 5.0 | 7.0 | 0.00 | 0.00 | 0.00 | 67 | 1014.8 |
| 20260905155914 | 91 | 136 | 1.0 | 9.0 | 0.00 | 0.00 | 0.00 | 69 | 1014.7 |
| 20260905155414 | 91 | 221 | 0.0 | 7.0 | 0.00 | 0.00 | 0.00 | 70 | 1014.8 |
| 20260905154915 | 89 | 229 | 3.0 | 7.0 | 0.00 | 0.00 | 0.00 | 72 | 1014.8 |
| 20260905154414 | 89 | 261 | 3.0 | 7.0 | 0.00 | 0.00 | 0.00 | 72 | 1014.9 |
| 20260905153914 | 89 | 219 | 4.0 | 9.0 | 0.00 | 0.00 | 0.00 | 72 | 1014.9 |
| 20260905153414 | 89 | 0 | 0.0 | 9.0 | 0.00 | 0.00 | 0.00 | 73 | 1014.8 |
| 20260905152914 | 89 | 128 | 6.0 | 9.0 | 0.00 | 0.00 | 0.00 | 72 | 1014.9 |
| 20260905152414 | 88 | 247 | 2.0 | 9.0 | 0.00 | 0.00 | 0.00 | 75 | 1015.0 |
| 20260905151914 | 88 | 157 | 2.0 | 7.0 | 0.00 | 0.00 | 0.00 | 72 | 1015.1 |
| 20260905151634 | 87 | 350 | 2.0 | 9.0 | 0.00 | 0.00 | 0.00 | 74 | 1015.2 |
| 20260905150914 | 87 | 9 | 1.0 | 9.0 | 0.00 | 0.00 | 0.00 | 75 | 1015.0 |
| 20260905150638 | 87 | 76 | 1.0 | 9.0 | 0.00 | 0.00 | 0.00 | 76 | 1015.1 |
| 20260905145914 | 88 | 114 | 4.0 | 7.0 | 0.00 | 0.00 | 0.00 | 75 | 1015.0 |
| 20260905145414 | 88 | 164 | 2.0 | 4.0 | 0.00 | 0.00 | 0.00 | 74 | 1015.1 |
| 20260905145139 | 87 | 146 | 0.0 | 4.0 | 0.00 | 0.00 | 0.00 | 74 | 1015.1 |
| 20260905144414 | 86 | 144 | 2.0 | 7.0 | 0.00 | 0.00 | 0.00 | 75 | 1015.2 |
| 20260905143913 | 85 | 105 | 2.0 | 7.0 | 0.00 | 0.00 | 0.00 | 76 | 1015.4 |
| 20260905143414 | 84 | 306 | 3.0 | 7.0 | 0.00 | 0.00 | 0.00 | 80 | 1015.2 |
| 20260905143138 | 84 | 326 | 5.0 | 7.0 | 0.00 | 0.01 | 0.00 | 78 | 1015.2 |
| 20260905142637 | 83 | 329 | 4.0 | 7.0 | 0.00 | 0.01 | 0.00 | 80 | 1015.3 |
| 20260905142136 | 83 | 224 | 0.0 | 4.0 | 0.00 | 0.01 | 0.00 | 82 | 1015.4 |
| 20260905141414 | 82 | 222 | 3.0 | 7.0 | 0.00 | 0.01 | 0.00 | 83 | 1015.2 |
| 20260905140914 | 83 | 206 | 4.0 | 7.0 | 0.00 | 0.01 | 0.00 | 82 | 1015.4 |
| 20260905140414 | 82 | 136 | 4.0 | 7.0 | 0.00 | 0.01 | 0.00 | 82 | 1015.5 |
| 20260905135915 | 81 | 243 | 2.0 | 7.0 | 0.00 | 0.01 | 0.00 | 85 | 1015.4 |
| 20260905135632 | 82 | 172 | 0.0 | 4.0 | 0.00 | 0.01 | 0.00 | 83 | 1015.5 |
| 20260905134915 | 81 | 245 | 2.0 | 4.0 | 0.00 | 0.01 | 0.00 | 85 | 1015.5 |
| 20260905134414 | 81 | 105 | 0.0 | 4.0 | 0.00 | 0.01 | 0.00 | 85 | 1015.5 |
| 20260905134142 | 81 | 195 | 1.0 | 2.0 | 0.00 | 0.01 | 0.00 | 85 | 1015.5 |
| 20260905133414 | 81 | 162 | 0.0 | 2.0 | 0.00 | 0.01 | 0.00 | 84 | 1015.5 |
| 20260905132915 | 80 | 159 | 1.0 | 2.0 | 0.00 | 0.01 | 0.00 | 87 | 1015.7 |
| 20260905132414 | 79 | 255 | 1.0 | 4.0 | 0.00 | 0.01 | 0.00 | 89 | 1015.8 |
| 20260905131915 | 79 | 170 | 2.0 | 4.0 | 0.00 | 0.01 | 0.00 | 89 | 1015.5 |
| 20260905131634 | 79 | 68 | 2.0 | 4.0 | 0.00 | 0.01 | 0.00 | 89 | 1015.6 |
| 20260905131146 | 78 | 160 | 0.0 | 2.0 | 0.00 | 0.01 | 0.00 | 89 | 1015.7 |
| 20260905130414 | 77 | 165 | 1.0 | 2.0 | 0.00 | 0.01 | 0.00 | 91 | 1015.6 |
| 20260905125914 | 76 | 221 | 0.0 | 2.0 | 0.00 | 0.01 | 0.00 | 94 | 1015.5 |
| 20260905125414 | 75 | 262 | 0.0 | 2.0 | 0.00 | 0.01 | 0.00 | 95 | 1015.6 |
| 20260905124913 | 75 | 146 | 0.0 | 2.0 | 0.00 | 0.01 | 0.00 | 95 | 1015.8 |
| 20260905124414 | 74 | 130 | 2.0 | 2.0 | 0.00 | 0.01 | 0.00 | 95 | 1015.7 |
| 20260905124355 | 73 | 182 | 0.0 | 2.0 | 0.00 | 0.01 | 0.00 | 95 | 1015.6 |
| 20260905124017 | 74 | 134 | 1.0 | 2.0 | 0.00 | 0.01 | 0.00 | 95 | 1015.7 |
| 20260905122915 | 73 | 280 | 0.0 | 2.0 | 0.00 | 0.01 | 0.00 | 95 | 1015.5 |
| 20260905122414 | 73 | 279 | 1.0 | 2.0 | 0.00 | 0.01 | 0.00 | 95 | 1015.6 |
| 20260905121914 | 73 | 233 | 0.0 | 0.0 | 0.00 | 0.01 | 0.00 | 95 | 1015.6 |
| 20260905121402 | 73 | 231 | 0.0 | 0.0 | 0.00 | 0.01 | 0.00 | 95 | 1015.5 |
| 20260905120903 | 73 | 231 | 0.0 | 0.0 | 0.00 | 0.01 | 0.00 | 95 | 1015.5 |
| 20260905120403 | 72 | 231 | 0.0 | 0.0 | 0.00 | 0.01 | 0.00 | 95 | 1015.6 |
| 20260905115902 | 72 | 231 | 0.0 | 0.0 | 0.00 | 0.01 | 0.00 | 95 | 1015.4 |
| 20260905115402 | 72 | 231 | 0.0 | 0.0 | 0.00 | 0.01 | 0.00 | 95 | 1015.3 |
| 20260905114903 | 72 | 232 | 0.0 | 0.0 | 0.00 | 0.01 | 0.00 | 95 | 1015.3 |
| 20260905114402 | 72 | 231 | 0.0 | 0.0 | 0.00 | 0.01 | 0.00 | 95 | 1015.3 |
| 20260905113902 | 71 | 231 | 0.0 | 0.0 | 0.00 | 0.01 | 0.00 | 95 | 1015.1 |
| 20260905113618 | 71 | 231 | 0.0 | 0.0 | 0.00 | 0.01 | 0.00 | 95 | 1015.2 |
| 20260905112902 | 72 | 232 | 0.0 | 0.0 | 0.00 | 0.01 | 0.00 | 95 | 1014.9 |
| 20260905112402 | 71 | 231 | 0.0 | 0.0 | 0.00 | 0.01 | 0.00 | 95 | 1014.9 |
| 20260905111850 | 72 | 231 | 0.0 | 0.0 | 0.00 | 0.01 | 0.00 | 95 | 1014.9 |
| 20260905111611 | 72 | 231 | 0.0 | 0.0 | 0.00 | 0.01 | 0.00 | 95 | 1014.8 |
| 20260905110850 | 72 | 232 | 0.0 | 0.0 | 0.00 | 0.01 | 0.00 | 95 | 1014.8 |
| 20260905110351 | 72 | 231 | 0.0 | 0.0 | 0.00 | 0.01 | 0.00 | 95 | 1014.6 |
| 20260905105849 | 72 | 231 | 0.0 | 0.0 | 0.00 | 0.01 | 0.00 | 95 | 1014.7 |